Total_Precipitation_Accumulation
0.22 0.25 0.34 0.53 0.63 0.55 0.49 0.50 0.58 0.52 0.50 0.55 0.62 0.69 0.66 0.62 0.60 0.59 0.59 0.59 0.61 0.65 0.64 0.57 0.55 0.56 0.66 0.81 0.98 1.18 1.43 1.42 1.28 1.22 1.19 1.07 1.01 1.02 0.99 0.99 0.92 0.90 0.98 1.08
0.15 0.16 0.22 0.33 0.37 0.31 0.25 0.32 0.43 0.47 0.53 0.56 0.63 0.69 0.63 0.54 0.48 0.42 0.40 0.42 0.46 0.49 0.54 0.45 0.38 0.40 0.43 0.54 0.74 0.91 1.12 1.21 1.18 1.10 1.00 0.99 1.00 0.97 0.92 0.90 0.85 0.79 0.79 0.84
0.17 0.15 0.20 0.29 0.26 0.27 0.30 0.32 0.38 0.50 0.60 0.61 0.72 0.90 0.80 0.63 0.54 0.42 0.35 0.34 0.38 0.40 0.45 0.45 0.42 0.40 0.41 0.47 0.57 0.70 0.86 0.98 0.97 0.91 0.83 0.84 0.89 0.86 0.82 0.76 0.76 0.72 0.71 0.67
0.28 0.31 0.43 0.38 0.27 0.34 0.46 0.41 0.41 0.51 0.57 0.65 0.96 1.16 0.78 0.55 0.50 0.43 0.35 0.33 0.34 0.38 0.39 0.38 0.40 0.41 0.42 0.42 0.45 0.51 0.61 0.69 0.71 0.72 0.71 0.72 0.74 0.76 0.80 0.75 0.69 0.66 0.69 0.74
0.42 0.44 0.60 0.49 0.29 0.41 0.49 0.45 0.37 0.47 0.53 0.54 0.58 0.53 0.35 0.24 0.24 0.28 0.24 0.23 0.23 0.24 0.26 0.28 0.30 0.32 0.34 0.39 0.41 0.41 0.44 0.49 0.53 0.56 0.59 0.64 0.67 0.71 0.83 0.83 0.76 0.73 0.82 0.86
0.40 0.44 0.49 0.45 0.25 0.29 0.41 0.51 0.27 0.28 0.31 0.26 0.22 0.23 0.24 0.21 0.15 0.14 0.13 0.14 0.14 0.13 0.13 0.18 0.23 0.25 0.28 0.33 0.38 0.40 0.41 0.43 0.48 0.49 0.52 0.60 0.68 0.71 0.69 0.67 0.70 0.75 0.76 0.71
0.33 0.35 0.27 0.22 0.22 0.27 0.50 0.52 0.24 0.21 0.20 0.17 0.17 0.18 0.22 0.23 0.17 0.13 0.11 0.11 0.12 0.12 0.13 0.16 0.24 0.29 0.29 0.33 0.35 0.38 0.43 0.44 0.46 0.48 0.50 0.54 0.54 0.52 0.54 0.60 0.59 0.57 0.56 0.60
0.31 0.35 0.31 0.21 0.24 0.34 0.33 0.23 0.21 0.23 0.21 0.19 0.16 0.15 0.15 0.17 0.15 0.13 0.11 0.11 0.11 0.12 0.14 0.14 0.18 0.27 0.30 0.35 0.37 0.37 0.38 0.38 0.37 0.39 0.39 0.42 0.44 0.43 0.42 0.49 0.54 0.56 0.58 0.60
0.37 0.35 0.28 0.24 0.27 0.26 0.24 0.22 0.21 0.24 0.21 0.19 0.17 0.15 0.13 0.13 0.12 0.12 0.12 0.13 0.13 0.15 0.20 0.23 0.19 0.23 0.29 0.35 0.39 0.39 0.36 0.31 0.32 0.32 0.33 0.32 0.35 0.40 0.44 0.45 0.47 0.50 0.54 0.59
0.30 0.25 0.22 0.22 0.22 0.22 0.22 0.22 0.19 0.20 0.19 0.19 0.20 0.18 0.15 0.13 0.13 0.12 0.11 0.13 0.16 0.20 0.24 0.29 0.27 0.29 0.33 0.36 0.37 0.36 0.33 0.30 0.31 0.30 0.29 0.28 0.31 0.35 0.38 0.40 0.41 0.46 0.52 0.56
0.25 0.21 0.19 0.18 0.18 0.16 0.16 0.16 0.16 0.17 0.17 0.17 0.19 0.19 0.17 0.14 0.13 0.12 0.11 0.12 0.16 0.22 0.26 0.28 0.31 0.36 0.39 0.37 0.33 0.33 0.31 0.30 0.29 0.32 0.31 0.28 0.27 0.31 0.36 0.40 0.48 0.54 0.55 0.57
0.25 0.18 0.19 0.17 0.14 0.12 0.13 0.13 0.14 0.17 0.16 0.14 0.15 0.15 0.14 0.14 0.16 0.13 0.13 0.15 0.18 0.22 0.25 0.27 0.30 0.34 0.36 0.34 0.29 0.28 0.30 0.30 0.29 0.28 0.28 0.30 0.32 0.30 0.34 0.39 0.50 0.55 0.58 0.58
0.20 0.18 0.16 0.14 0.12 0.12 0.14 0.12 0.12 0.13 0.14 0.14 0.13 0.13 0.13 0.13 0.15 0.15 0.16 0.16 0.17 0.19 0.20 0.23 0.26 0.27 0.29 0.30 0.26 0.24 0.27 0.29 0.28 0.27 0.28 0.29 0.31 0.36 0.38 0.37 0.36 0.38 0.44 0.51
0.14 0.16 0.16 0.13 0.11 0.12 0.14 0.12 0.11 0.11 0.11 0.13 0.15 0.15 0.15 0.16 0.17 0.16 0.17 0.16 0.17 0.18 0.17 0.18 0.22 0.25 0.26 0.27 0.27 0.28 0.30 0.29 0.30 0.31 0.31 0.35 0.36 0.39 0.50 0.56 0.50 0.39 0.40 0.45
0.11 0.13 0.15 0.15 0.13 0.13 0.13 0.12 0.12 0.12 0.12 0.14 0.14 0.14 0.14 0.15 0.18 0.17 0.16 0.16 0.17 0.16 0.16 0.17 0.20 0.23 0.24 0.25 0.27 0.27 0.30 0.33 0.36 0.39 0.38 0.41 0.44 0.48 0.52 0.46 0.45 0.46 0.43 0.43
0.12 0.13 0.14 0.16 0.16 0.14 0.14 0.13 0.13 0.14 0.14 0.16 0.15 0.14 0.14 0.17 0.20 0.18 0.16 0.17 0.16 0.15 0.14 0.15 0.18 0.21 0.22 0.24 0.27 0.26 0.26 0.36 0.41 0.48 0.45 0.41 0.48 0.49 0.46 0.44 0.47 0.50 0.47 0.45
0.17 0.16 0.18 0.19 0.18 0.17 0.17 0.16 0.16 0.16 0.16 0.18 0.19 0.17 0.16 0.15 0.18 0.16 0.16 0.16 0.14 0.12 0.13 0.15 0.16 0.20 0.23 0.25 0.27 0.27 0.28 0.32 0.38 0.45 0.47 0.46 0.52 0.51 0.48 0.47 0.48 0.50 0.49 0.52
0.19 0.18 0.19 0.20 0.20 0.20 0.21 0.20 0.18 0.17 0.18 0.19 0.21 0.20 0.19 0.19 0.21 0.18 0.18 0.17 0.15 0.13 0.16 0.19 0.20 0.21 0.23 0.24 0.25 0.27 0.28 0.31 0.33 0.38 0.44 0.48 0.51 0.52 0.52 0.50 0.46 0.47 0.48 0.51
0.20 0.21 0.22 0.22 0.23 0.24 0.23 0.23 0.21 0.20 0.20 0.24 0.27 0.24 0.21 0.22 0.24 0.21 0.21 0.20 0.20 0.21 0.22 0.24 0.27 0.25 0.25 0.25 0.27 0.27 0.28 0.31 0.32 0.34 0.38 0.45 0.47 0.48 0.53 0.54 0.51 0.50 0.50 0.49
0.25 0.26 0.28 0.30 0.29 0.27 0.26 0.23 0.22 0.23 0.23 0.26 0.29 0.27 0.25 0.23 0.22 0.23 0.23 0.24 0.24 0.26 0.29 0.30 0.28 0.28 0.28 0.28 0.32 0.31 0.31 0.33 0.35 0.38 0.40 0.45 0.47 0.48 0.49 0.48 0.49 0.53 0.53 0.50
0.28 0.27 0.27 0.30 0.31 0.30 0.30 0.28 0.26 0.24 0.25 0.29 0.33 0.35 0.34 0.31 0.29 0.29 0.26 0.27 0.26 0.27 0.29 0.31 0.28 0.30 0.33 0.35 0.38 0.35 0.35 0.37 0.39 0.42 0.45 0.50 0.51 0.49 0.48 0.47 0.48 0.52 0.50 0.50
0.30 0.28 0.29 0.30 0.31 0.30 0.31 0.32 0.29 0.28 0.29 0.32 0.36 0.37 0.37 0.37 0.36 0.35 0.31 0.32 0.33 0.38 0.36 0.33 0.32 0.38 0.44 0.45 0.39 0.37 0.38 0.40 0.43 0.46 0.49 0.53 0.54 0.52 0.51 0.50 0.50 0.49 0.47 0.49
0.29 0.28 0.30 0.31 0.31 0.30 0.30 0.32 0.31 0.30 0.31 0.34 0.36 0.37 0.38 0.36 0.34 0.35 0.37 0.37 0.37 0.43 0.40 0.39 0.42 0.47 0.50 0.44 0.42 0.42 0.42 0.46 0.48 0.48 0.53 0.57 0.58 0.58 0.57 0.57 0.56 0.55 0.53 0.54
0.25 0.26 0.28 0.29 0.28 0.29 0.31 0.31 0.30 0.31 0.30 0.29 0.30 0.33 0.37 0.38 0.36 0.33 0.39 0.45 0.48 0.48 0.41 0.45 0.49 0.51 0.52 0.44 0.43 0.43 0.44 0.50 0.53 0.53 0.57 0.60 0.59 0.58 0.59 0.59 0.58 0.58 0.57 0.57
0.24 0.25 0.26 0.26 0.28 0.29 0.29 0.28 0.29 0.30 0.30 0.29 0.28 0.30 0.35 0.39 0.43 0.42 0.42 0.47 0.53 0.53 0.46 0.49 0.51 0.49 0.43 0.43 0.45 0.46 0.48 0.53 0.59 0.62 0.62 0.62 0.59 0.58 0.57 0.58 0.59 0.62 0.61 0.61
0.24 0.25 0.24 0.24 0.27 0.29 0.29 0.30 0.32 0.31 0.33 0.34 0.33 0.32 0.38 0.42 0.44 0.46 0.47 0.51 0.55 0.58 0.51 0.47 0.46 0.47 0.45 0.47 0.49 0.49 0.52 0.56 0.59 0.61 0.62 0.62 0.60 0.58 0.58 0.59 0.61 0.64 0.66 0.68
0.25 0.25 0.25 0.26 0.28 0.31 0.33 0.35 0.37 0.38 0.38 0.37 0.35 0.35 0.40 0.47 0.47 0.47 0.49 0.52 0.55 0.56 0.55 0.54 0.53 0.55 0.57 0.59 0.60 0.59 0.59 0.58 0.57 0.59 0.63 0.65 0.64 0.63 0.62 0.61 0.63 0.64 0.67 0.69